Theta_e
311 311 311 312 312 312 312 311 310 309 309 306 302 303 293 292 290 300 304 306 303 293 287 291 291 288 291 296 294 294 293 292 293 292 294 291 293 289 289 289 287 289 288 288 286 287 286 289 287 289 290 290 293 296 297 297 295 295 292 294 293 302 291 285 287 290 294 297 300 301 303 303 300 300 300 299 298 299 298 296 292 293 291 293 289 288 294
311 312 312 312 312 311 311 310 310 310 309 306 305 298 294 294 293 296 304 306 301 293 284 284 286 290 293 293 292 294 293 292 291 292 293 292 290 289 289 291 292 289 290 288 286 289 282 290 289 288 292 290 297 296 296 297 293 293 292 290 296 288 290 286 282 283 289 295 298 298 301 301 297 296 299 300 302 301 297 296 294 294 292 295 289 288 294
312 312 312 312 312 311 311 310 310 310 311 309 305 296 297 296 298 297 299 304 299 289 290 287 286 288 289 289 289 290 292 295 293 292 291 294 292 290 288 291 290 289 291 288 289 290 289 286 291 291 291 291 297 296 296 297 294 296 298 302 301 291 290 286 279 278 281 283 284 285 288 291 294 297 300 300 300 299 296 293 292 291 293 294 291 292 295
312 312 313 312 312 312 311 311 311 311 310 309 306 300 297 291 284 291 293 296 295 294 296 292 289 287 288 287 289 291 288 293 294 294 293 293 292 291 291 290 290 289 288 287 286 286 291 287 288 290 289 291 294 296 296 295 295 299 303 303 298 291 292 289 286 283 282 285 286 291 294 292 289 292 294 294 299 301 299 294 290 291 290 292 295 296 297
313 313 313 312 312 311 311 311 311 311 310 310 305 301 296 292 285 288 286 292 293 291 292 290 290 287 291 283 289 288 289 290 291 295 288 293 291 291 290 289 287 287 287 286 285 287 286 289 287 287 288 292 294 297 296 296 297 301 299 300 296 292 286 288 289 288 289 290 290 293 294 289 290 290 291 295 297 299 298 295 294 294 291 290 294 297 297
312 313 313 312 312 311 311 311 311 311 310 310 306 295 295 284 290 293 295 288 286 288 289 291 289 291 291 288 292 289 287 288 286 291 293 293 293 288 289 290 290 288 287 286 283 285 285 286 284 291 291 290 292 292 295 294 298 298 294 298 293 289 285 289 290 289 291 292 292 293 293 292 292 293 294 295 299 299 296 298 296 297 295 293 295 296 297
313 312 313 313 312 311 311 311 311 311 310 309 305 295 298 294 294 294 298 290 292 291 291 292 291 289 290 290 292 288 287 286 289 288 289 291 290 291 284 287 288 289 289 287 283 284 281 281 287 287 288 289 290 289 291 295 297 295 293 294 295 291 286 289 290 289 289 290 291 293 291 293 294 294 295 297 299 300 299 298 298 299 297 298 298 297 298
312 313 313 313 312 312 312 311 311 311 309 307 303 300 294 293 292 292 297 295 293 293 292 291 290 286 292 288 289 290 288 287 289 291 289 286 288 292 288 288 289 289 289 287 284 286 287 286 283 289 289 288 291 290 291 291 296 296 291 292 294 290 286 293 289 286 287 290 292 294 293 293 294 298 301 301 300 301 300 298 299 300 300 301 297 298 299
313 312 313 313 312 312 312 312 311 311 310 304 301 299 302 302 303 301 293 290 292 294 292 289 287 285 287 286 290 291 290 289 291 289 293 290 287 290 288 290 289 290 289 288 287 290 289 289 289 290 290 285 293 289 292 294 289 292 291 291 292 292 287 291 288 283 284 289 291 290 292 294 295 297 298 299 300 297 297 297 302 298 298 300 300 297 297
312 312 313 313 312 312 312 311 311 310 311 305 303 297 307 305 306 305 297 289 294 291 291 290 287 283 289 291 291 290 290 292 293 288 294 294 294 292 291 291 289 287 287 287 288 291 291 291 292 293 293 294 294 295 295 295 292 291 291 293 289 289 288 285 285 282 282 288 290 289 292 294 292 294 297 299 306 307 308 309 311 309 308 298 296 297 300
312 312 312 313 313 313 312 312 312 312 310 304 302 301 303 300 298 299 298 289 291 291 290 288 287 291 291 292 290 292 292 293 292 286 287 293 293 295 293 291 288 286 286 290 295 295 295 295 295 295 294 294 293 294 295 297 295 293 291 290 290 291 289 286 288 280 283 287 288 292 294 286 287 298 302 301 303 308 306 305 307 309 311 307 307 309 311
312 312 312 313 313 313 313 313 312 310 309 309 307 304 305 306 303 300 294 287 289 292 289 288 289 291 290 292 291 290 291 291 291 294 289 291 293 294 293 292 290 285 292 297 297 297 296 296 295 294 294 294 293 293 294 293 294 296 296 291 289 289 289 287 287 283 281 287 289 293 288 289 300 303 303 303 304 304 308 308 308 308 309 310 311 308 310
312 312 312 313 313 313 313 313 313 311 310 310 308 303 307 309 302 298 296 291 287 290 288 290 293 292 292 292 292 293 294 294 294 295 294 292 291 293 294 292 291 293 298 296 296 294 289 287 288 290 290 293 293 293 292 292 292 294 296 295 291 288 288 287 286 285 287 287 285 285 289 300 303 302 303 304 304 302 304 307 308 309 309 309 311 314 314
312 312 313 313 313 313 313 313 313 313 311 310 307 307 308 307 300 298 296 291 290 293 292 291 292 291 292 292 292 293 293 292 292 294 291 295 292 292 294 296 296 299 298 297 293 290 285 284 282 284 287 290 290 289 291 293 293 293 292 294 294 291 290 288 283 287 281 285 283 285 295 297 300 297 297 298 296 298 298 300 305 309 309 309 311 316 318
311 312 313 313 313 313 313 313 313 313 313 310 309 308 307 307 305 301 301 296 289 292 294 287 291 292 292 292 293 291 289 288 289 291 294 295 293 295 296 298 300 299 298 293 288 287 284 283 280 281 283 283 280 283 293 289 295 295 294 294 294 293 287 290 284 284 288 282 282 283 287 287 292 297 300 303 304 304 304 301 305 311 310 310 311 316 317
312 313 312 313 313 313 313 313 313 313 312 309 309 308 308 309 308 306 301 296 293 286 291 295 296 294 292 293 294 292 289 287 286 288 289 289 292 295 298 299 299 298 297 294 289 287 285 282 281 281 279 282 286 285 284 290 290 296 296 295 293 293 293 291 287 284 285 283 281 281 281 290 295 296 299 303 305 305 305 304 302 310 310 310 311 317 319
312 312 313 313 314 313 314 314 313 312 312 309 308 308 306 311 307 304 301 298 295 290 298 299 298 297 295 292 294 292 292 288 289 286 285 287 290 293 295 299 299 297 295 290 287 286 283 283 283 283 285 288 284 283 289 286 286 289 293 294 292 291 290 290 284 283 285 284 281 279 289 283 295 299 302 304 307 308 304 297 298 307 310 309 311 313 318
312 313 313 313 314 314 314 314 314 313 312 312 309 307 307 311 310 307 303 299 294 294 298 300 297 294 292 293 291 294 295 295 293 294 289 290 290 291 293 295 291 296 298 289 288 282 283 283 282 282 281 290 290 289 281 286 285 286 287 289 288 289 290 290 283 283 286 287 284 289 291 298 301 301 304 307 309 308 299 292 302 309 311 309 309 309 312
313 313 313 313 314 314 314 314 314 313 313 310 309 309 308 310 311 309 303 300 297 291 298 301 302 298 300 301 297 297 297 295 294 290 288 287 288 293 295 295 296 288 293 287 285 285 284 284 288 285 283 286 290 283 288 285 284 291 292 288 288 290 290 292 289 284 282 283 282 283 288 298 303 304 307 309 306 295 293 306 313 312 311 310 308 307 308
313 313 313 313 313 314 314 314 313 313 313 311 309 305 308 311 311 309 303 297 298 296 299 300 301 298 302 298 295 293 293 294 293 290 288 285 291 295 290 285 289 292 288 288 284 287 285 283 285 287 284 286 287 290 287 288 292 288 288 292 289 288 288 284 284 289 288 289 288 286 282 295 306 305 306 306 300 300 308 311 312 313 310 309 308 308 308
313 313 313 313 313 313 314 313 313 313 313 313 309 307 305 310 311 311 309 304 299 295 296 304 303 301 301 299 299 299 296 293 292 290 293 292 294 291 281 284 287 289 284 287 282 284 286 284 287 285 289 287 289 290 283 285 288 294 293 292 290 294 287 286 289 295 287 286 284 284 294 302 308 305 297 305 306 312 313 311 307 311 309 309 307 308 309
312 312 313 313 313 313 313 313 313 313 313 313 310 308 303 308 311 312 311 309 301 298 298 302 304 303 305 305 305 304 302 301 301 301 295 293 294 292 291 292 292 290 291 292 287 287 289 290 292 287 285 287 292 286 288 284 282 288 295 294 284 294 291 293 286 296 291 288 293 296 301 307 308 310 309 311 312 313 314 312 310 308 308 312 308 308 310
312 313 313 313 313 313 313 313 313 313 312 313 311 306 303 305 307 313 310 303 305 305 306 303 304 304 306 307 308 308 307 307 305 304 301 295 292 292 291 290 290 296 296 295 290 288 289 290 286 291 288 289 287 286 288 288 285 288 286 294 295 299 299 298 296 292 296 300 301 301 300 307 308 310 308 307 309 309 311 311 308 309 309 310 309 309 310
312 312 313 313 313 313 313 313 312 312 312 312 310 306 304 306 308 309 307 305 301 295 296 297 294 292 295 299 304 308 309 307 307 306 306 302 292 292 294 296 297 297 294 296 297 292 291 291 291 293 286 290 292 286 283 283 286 291 290 290 293 297 298 297 290 292 290 288 298 298 297 300 305 306 307 306 307 308 308 307 311 311 310 309 311 310 310
312 312 312 313 313 312 312 312 312 311 312 312 310 310 309 305 308 307 303 297 297 295 289 291 292 299 302 304 306 305 307 308 310 307 305 304 300 295 293 296 299 293 291 294 297 293 292 289 289 289 285 291 292 285 291 287 286 292 285 289 290 291 299 294 292 291 291 292 296 296 297 299 306 305 304 303 304 305 305 307 307 311 313 310 309 312 311
311 312 312 312 312 312 312 312 311 311 311 312 312 304 304 305 310 310 307 305 303 299 292 290 294 302 304 304 303 306 308 308 308 307 306 305 304 303 300 301 299 301 298 301 294 292 289 289 289 290 287 288 295 288 287 291 290 293 290 289 294 295 297 288 292 289 292 295 297 295 296 299 304 304 306 306 304 305 305 305 305 307 310 310 311 311 311
311 312 312 312 312 312 312 311 311 311 311 311 307 302 303 304 308 306 304 303 297 292 293 289 293 299 303 301 305 307 309 308 306 306 306 306 305 304 303 301 298 297 296 294 295 292 288 288 287 287 290 290 295 292 293 291 291 289 289 293 296 294 289 293 291 287 287 289 291 294 288 289 295 299 301 303 304 304 304 305 304 304 307 309 311 311 312
311 312 312 312 312 312 311 311 311 311 310 311 310 305 305 305 307 309 307 306 300 292 292 290 292 297 303 300 306 307 309 309 306 304 304 304 305 304 302 301 301 298 296 295 291 290 289 289 289 294 295 296 292 290 295 295 295 290 291 292 295 291 292 292 288 287 286 292 294 295 295 295 296 298 300 301 303 303 302 302 304 305 306 310 311 311 308
312 312 312 311 311 311 311 311 311 312 311 307 305 307 307 308 309 310 310 309 304 300 296 296 299 296 294 298 306 307 309 308 307 306 305 305 305 305 304 303 302 302 301 300 296 294 293 293 296 293 293 297 294 290 291 287 287 286 290 294 295 296 297 295 294 294 294 296 296 297 295 294 296 299 300 301 303 303 301 304 306 305 308 310 310 312 310
311 311 312 311 311 311 311 312 312 312 310 306 309 307 302 303 304 307 308 310 303 300 294 292 288 292 301 303 303 306 307 309 308 306 305 304 304 304 304 303 303 303 302 298 297 291 295 294 296 299 300 302 293 292 288 289 287 289 295 295 297 297 298 298 298 295 293 297 298 298 297 297 299 300 301 302 303 305 302 303 305 306 312 313 310 311 311
311 311 311 311 310 310 311 312 313 312 309 303 304 300 293 289 298 309 311 310 303 300 296 296 292 297 295 301 303 303 305 307 305 305 305 306 305 306 307 306 305 305 298 298 297 296 296 291 293 295 300 300 297 291 288 287 286 288 293 296 297 297 297 297 299 299 299 298 299 300 300 300 301 301 301 302 302 303 302 304 306 310 311 313 313 311 310
311 311 310 310 310 311 311 312 313 310 303 304 299 298 298 299 302 306 311 309 305 301 295 291 290 289 289 296 303 307 307 307 308 308 304 306 301 304 302 304 300 304 301 296 297 294 293 296 295 295 294 298 297 290 290 288 286 288 295 296 297 297 298 298 298 299 300 300 299 298 298 300 302 300 300 303 303 303 303 302 304 308 313 312 311 311 312
311 310 309 310 310 311 312 313 313 309 302 304 307 308 308 309 310 311 312 306 302 297 298 292 287 289 289 294 300 303 306 303 301 300 297 304 301 303 299 303 303 301 306 297 291 290 296 296 296 293 296 298 293 290 287 286 289 295 296 298 297 297 298 299 299 300 299 300 299 295 295 297 300 303 305 304 304 303 302 303 305 308 307 307 307 309 310
311 310 310 310 311 311 312 313 311 309 308 304 302 303 307 309 309 309 309 307 301 300 296 290 286 285 287 296 294 299 307 297 296 296 292 301 304 299 295 300 299 296 298 295 296 295 296 297 293 293 295 292 293 289 285 290 295 295 296 297 298 298 298 298 298 298 298 299 300 300 300 301 304 306 306 305 303 302 303 303 303 303 303 302 305 305 308
310 309 310 311 311 312 312 311 305 307 301 302 302 304 307 311 309 310 311 306 297 294 292 291 289 284 287 289 288 292 303 299 294 298 294 297 306 297 298 293 294 291 294 301 294 293 292 294 297 290 287 293 289 285 288 292 294 295 296 296 297 298 297 296 296 298 298 299 299 299 300 301 301 302 303 303 303 302 301 301 301 301 301 301 302 303 305
310 310 311 311 312 312 308 309 305 304 301 303 302 311 313 313 314 306 306 307 301 295 291 290 289 285 287 283 286 293 306 297 298 297 296 298 295 300 299 294 286 292 297 294 289 294 291 298 295 286 292 287 287 288 292 296 294 295 296 296 297 297 297 296 297 298 298 299 299 299 299 300 300 302 303 302 302 301 301 300 301 301 301 301 301 302 304
310 311 312 311 308 307 303 303 308 306 303 305 310 315 314 312 309 308 305 304 304 304 295 289 288 288 289 290 292 295 301 291 297 294 294 293 290 297 295 289 287 295 293 289 291 291 293 301 292 287 287 287 289 297 298 298 297 296 296 297 298 299 299 299 300 299 297 297 297 297 298 298 299 301 302 301 300 300 299 299 299 300 300 300 302 303 303
311 310 304 304 303 301 301 303 304 307 315 314 313 306 301 304 296 296 298 295 299 304 295 293 288 289 295 293 291 300 300 293 296 293 292 298 291 288 298 294 292 296 283 287 291 297 294 291 287 285 288 295 297 298 299 300 300 299 299 299 299 299 299 299 299 297 295 294 294 295 297 297 298 300 302 302 300 299 299 300 301 301 302 303 303 304 305
309 305 304 303 303 300 301 305 309 314 310 310 307 303 299 299 295 293 294 294 297 292 294 291 289 290 292 292 296 303 300 296 292 292 291 297 295 288 294 286 293 291 281 283 288 300 285 284 288 287 287 294 295 297 299 300 300 300 300 300 300 300 300 299 300 298 296 295 296 297 297 296 297 298 301 303 304 302 301 301 301 302 302 303 303 306 305
306 305 304 304 305 305 307 309 315 310 310 304 303 299 295 298 292 289 296 291 290 297 297 289 292 294 296 294 292 291 305 300 293 291 293 294 301 290 294 292 292 288 278 278 285 296 285 282 286 286 287 293 294 298 299 300 299 301 301 301 301 301 301 300 300 300 299 299 300 299 299 300 301 300 301 302 305 305 304 303 303 302 302 302 305 305 304
306 308 307 304 305 303 304 306 305 304 305 303 302 302 297 288 294 296 294 288 287 291 299 295 297 296 300 299 294 291 302 308 302 302 297 291 301 299 289 285 295 284 277 275 288 292 286 284 285 286 288 294 295 297 299 299 300 301 301 302 302 301 301 300 301 301 299 298 298 299 299 300 300 301 302 303 305 307 307 305 304 303 303 302 305 307 306
307 306 306 306 307 304 304 304 303 303 305 304 295 286 288 292 294 291 292 288 288 294 295 299 295 295 295 301 299 298 298 304 302 303 296 289 298 293 288 291 292 279 277 285 294 289 286 284 285 286 293 295 297 298 298 298 300 300 301 302 302 301 301 300 300 300 300 298 298 299 299 299 299 300 302 303 304 306 309 311 311 308 305 304 305 304 307
308 307 307 305 306 304 304 294 300 296 284 286 284 283 287 286 289 289 289 294 299 297 295 304 301 302 305 308 300 301 299 306 300 298 293 288 292 290 285 280 283 278 284 294 290 286 285 285 285 289 295 296 297 297 298 298 299 300 301 302 301 302 301 300 300 300 299 299 299 299 299 299 299 300 302 302 303 304 306 309 312 310 309 309 309 309 309
308 308 306 306 302 306 303 288 298 299 288 284 282 283 285 283 285 288 287 287 291 295 296 296 295 297 295 301 298 298 299 301 302 297 295 294 289 285 282 280 282 289 296 288 287 285 286 289 291 293 296 297 298 298 298 299 299 299 300 301 302 302 301 301 301 300 299 299 299 299 299 299 299 299 301 301 302 302 303 305 308 310 310 309 308 309 309
306 297 290 292 289 293 290 284 290 285 285 286 288 287 287 285 287 285 288 292 296 296 296 297 297 297 297 302 302 302 299 294 300 294 290 295 288 288 285 284 289 291 287 283 286 287 288 287 294 296 296 296 297 298 299 299 298 298 298 300 301 300 300 300 300 300 300 298 298 299 298 299 299 299 299 300 301 302 302 302 305 307 307 307 307 307 308
302 296 289 287 287 288 286 284 284 283 289 290 290 289 288 287 288 291 294 297 295 295 295 296 297 300 299 300 296 294 298 296 292 292 296 291 285 284 291 292 289 283 285 286 284 284 285 290 294 295 297 297 298 299 299 299 298 298 297 297 300 300 300 300 300 300 300 299 298 298 298 299 298 298 298 299 300 301 301 302 303 304 305 305 305 305 306
296 298 288 287 286 285 290 287 287 290 292 291 291 292 292 294 295 295 295 297 295 297 297 297 297 301 296 298 298 295 297 297 291 293 294 287 287 288 292 287 282 284 282 282 284 285 287 292 295 297 298 299 300 300 299 298 298 297 297 297 299 299 300 300 300 300 301 300 299 298 298 299 299 299 299 299 299 300 302 302 302 303 303 303 304 305 306
297 295 289 289 285 286 286 290 292 294 295 295 293 293 294 296 293 294 297 297 297 298 296 297 295 292 294 295 294 292 291 292 289 288 293 291 292 287 283 287 285 288 287 285 286 291 292 295 297 298 300 301 300 299 299 298 298 298 296 296 297 298 299 299 300 300 302 301 299 298 298 299 299 299 299 299 299 300 301 301 301 302 302 303 303 303 303
295 289 290 286 289 291 291 293 292 292 292 292 294 293 294 295 295 295 297 298 297 297 297 296 296 293 289 292 291 289 288 290 284 284 288 286 283 280 283 283 284 283 289 291 290 292 294 297 299 301 301 300 300 300 299 298 299 298 297 296 298 298 298 299 300 301 302 301 301 300 299 300 299 299 299 299 298 299 301 301 301 301 301 301 302 302 302
295 293 292 288 291 292 294 292 291 290 289 291 290 291 293 294 293 295 298 299 298 297 295 296 296 290 289 290 284 284 285 287 288 284 282 283 286 286 284 281 283 283 286 290 291 293 297 298 299 299 300 300 302 301 298 298 299 298 297 298 300 299 298 298 299 300 300 301 301 301 302 301 300 299 299 298 299 300 301 301 301 300 300 301 300 300 301
293 289 291 295 295 292 293 292 290 290 290 289 290 292 293 294 294 295 298 299 296 292 291 290 289 286 284 282 280 281 285 291 286 284 282 284 287 284 281 279 281 285 289 292 293 294 296 297 299 299 300 300 300 300 299 298 296 295 296 298 299 299 298 299 299 300 300 300 301 303 301 301 302 302 302 301 300 299 299 301 302 301 301 301 301 300 300
289 291 295 297 297 296 294 292 293 291 291 292 292 293 295 295 295 297 299 295 293 290 289 291 287 284 281 283 286 287 289 286 284 284 281 285 287 284 284 285 288 291 291 291 292 296 301 301 301 302 300 299 302 298 297 296 295 295 297 298 299 299 299 298 298 299 299 299 300 300 301 303 304 303 303 301 300 299 298 298 300 301 302 302 301 301 301
Wind_Speed
19 19 19 17 15 14 15 15 16 15 16 9 10 6 5 5 5 9 10 14 12 6 6 2 5 3 3 8 4 5 2 3 3 5 9 6 7 3 1 1 2 0 0 1 3 4 2 2 2 2 4 5 6 8 11 13 12 10 5 7 2 10 1 6 8 11 12 17 16 14 11 5 6 7 7 9 11 11 12 9 5 6 2 7 5 3 13
19 18 18 16 14 13 13 14 15 15 12 6 7 4 4 4 4 6 5 13 7 12 6 5 6 4 7 6 5 6 3 6 7 5 5 4 5 4 2 3 1 1 2 1 3 3 2 1 1 1 1 2 3 8 8 12 8 7 4 5 7 6 1 3 6 7 8 10 4 3 1 1 1 5 5 10 12 13 3 5 2 8 10 11 6 11 14
18 18 17 15 14 13 12 13 13 15 12 7 5 4 4 6 3 5 4 8 10 8 2 2 1 6 7 6 7 10 5 5 8 7 2 3 3 4 2 1 2 1 2 2 1 2 0 1 5 4 2 3 2 6 8 10 9 10 13 16 8 4 4 2 2 4 7 11 11 4 7 8 11 7 7 8 17 14 6 8 4 10 5 7 7 12 12
18 18 17 15 14 12 11 11 12 13 11 8 4 5 3 3 4 5 2 4 4 5 3 5 3 3 8 7 4 5 6 6 7 11 1 6 7 2 2 3 3 3 4 3 2 3 2 3 1 3 2 2 1 3 7 9 10 14 18 12 6 2 3 4 6 6 10 7 7 8 6 10 6 14 15 16 15 12 10 5 6 11 4 8 11 10 11
18 18 17 15 13 12 11 10 11 11 11 8 5 3 1 1 1 3 7 4 4 5 1 5 4 4 3 2 4 6 7 6 4 8 2 7 8 4 1 3 4 3 3 1 3 2 3 2 4 4 5 2 3 4 6 9 10 11 8 12 6 1 3 7 9 11 13 12 14 17 14 16 18 15 17 18 13 11 15 13 13 7 9 10 5 5 9
18 18 18 16 13 12 11 10 10 10 9 7 3 2 1 2 0 1 2 1 6 10 4 9 7 4 4 2 2 3 7 7 7 6 2 7 5 4 4 5 3 3 3 3 2 3 3 3 3 2 3 5 4 5 4 7 3 10 7 10 5 2 4 5 5 9 10 15 19 18 15 14 15 14 16 17 17 11 15 18 7 11 10 11 5 6 8
18 17 17 17 13 11 11 10 10 8 8 3 2 2 1 1 1 1 1 2 0 2 7 9 6 9 5 2 2 5 6 6 2 3 6 5 4 4 3 5 7 6 5 2 2 2 3 3 3 2 2 4 4 2 5 5 5 5 6 8 4 2 5 6 6 12 14 17 14 15 14 12 12 14 16 18 19 16 15 12 7 15 7 8 9 9 15
18 18 18 17 14 11 11 10 9 8 8 3 2 2 1 1 1 2 1 3 3 4 3 3 5 7 5 3 4 3 3 6 8 3 3 4 4 2 4 8 10 8 8 3 3 4 5 6 7 2 3 7 3 3 5 4 1 2 4 4 3 2 4 6 8 9 14 13 9 7 8 8 10 8 8 12 10 16 15 9 7 7 2 2 6 8 13
18 19 18 17 14 11 10 9 8 8 4 2 1 2 2 2 0 1 4 3 2 3 2 4 4 4 4 1 2 5 3 5 3 5 3 5 4 5 9 10 10 8 5 6 7 8 7 7 10 8 6 10 4 5 3 7 4 3 2 2 4 2 3 3 3 8 9 7 7 16 13 11 8 5 14 18 14 3 7 4 3 5 7 2 1 4 10
18 18 18 18 15 11 11 8 7 7 1 3 1 3 1 1 1 1 0 2 1 2 1 3 1 3 2 3 6 5 5 1 4 6 3 6 9 8 8 11 8 6 5 8 9 7 8 10 11 9 9 9 8 9 7 11 6 3 4 4 4 3 2 3 4 6 7 6 12 16 14 8 1 6 12 14 8 11 12 9 12 8 3 3 8 9 3
20 17 17 17 16 15 14 10 7 7 2 3 2 2 1 2 2 2 2 2 1 2 1 2 3 2 5 6 8 6 7 3 1 1 3 4 8 7 7 10 5 5 5 6 8 10 12 11 11 10 11 13 13 10 10 12 10 9 4 2 3 5 4 3 1 2 7 12 14 12 1 0 2 3 10 13 11 12 13 7 9 9 7 1 3 7 8
19 18 17 17 16 15 13 11 7 8 3 3 3 4 4 2 3 3 3 2 2 3 2 3 3 5 8 9 6 7 8 6 6 7 6 5 11 11 9 7 1 5 5 9 10 10 10 9 10 9 12 13 14 12 11 11 10 9 8 7 4 3 3 4 2 2 6 10 11 3 4 6 1 4 9 15 9 10 9 10 13 15 17 16 10 5 4
18 19 17 17 16 15 13 10 9 8 6 4 4 5 3 3 2 2 1 2 4 2 4 3 4 7 8 9 10 5 4 4 5 5 7 8 8 7 2 4 5 7 10 12 11 8 5 7 9 9 9 8 9 10 12 13 13 11 9 10 7 4 4 4 2 3 4 4 6 4 7 3 3 1 6 14 4 8 8 7 19 17 15 13 8 9 8
19 18 17 17 16 15 14 12 9 7 7 5 4 4 3 3 3 2 2 2 3 3 4 5 7 8 6 6 6 8 6 7 5 3 4 2 5 8 7 5 7 10 9 7 5 3 4 2 4 4 5 3 2 2 7 9 10 12 14 11 10 9 5 3 4 2 2 3 5 7 7 6 3 5 10 13 9 12 10 7 9 14 14 14 12 11 11
17 18 17 17 16 16 14 13 11 9 9 7 4 5 4 4 4 2 1 1 3 2 3 4 2 3 5 6 4 6 4 4 5 4 5 4 3 3 7 10 9 9 7 3 4 2 1 1 2 3 3 3 1 3 3 4 6 12 12 11 11 9 7 3 2 2 1 4 5 4 2 5 1 3 13 6 5 9 8 4 4 14 18 15 13 12 11
18 18 17 17 16 16 15 14 10 7 8 6 3 4 5 4 3 3 2 2 1 4 4 8 6 5 4 5 6 8 5 4 3 5 6 2 3 8 7 6 8 5 3 2 2 2 3 2 4 3 3 2 2 1 1 1 2 6 10 10 11 10 9 8 5 4 5 2 1 2 1 1 3 17 18 18 9 8 6 4 8 12 18 17 14 13 13
17 17 17 17 17 15 14 13 10 7 6 3 2 2 3 4 4 4 3 2 3 4 1 1 2 1 3 6 5 3 0 2 2 4 5 5 4 6 8 8 5 3 5 2 3 2 3 3 2 3 4 4 4 2 3 1 1 5 8 9 9 9 8 5 4 6 5 4 2 3 1 2 12 17 18 18 16 10 2 4 6 12 17 17 15 14 14
18 17 18 17 16 14 14 13 12 9 7 4 2 2 2 3 5 3 2 2 3 3 4 8 7 4 4 2 4 4 2 1 1 2 3 4 3 3 6 5 7 4 2 3 3 3 3 2 5 2 3 2 6 4 2 5 2 3 5 6 4 4 3 5 8 5 6 6 4 1 2 2 10 16 19 17 13 4 4 8 2 10 12 13 13 15 15
18 18 17 16 16 14 13 12 10 9 7 3 0 2 3 3 3 5 1 1 2 3 2 1 4 7 4 3 5 4 3 4 2 2 5 5 2 3 8 1 1 4 5 3 2 2 3 3 4 2 3 3 3 4 6 3 5 4 5 5 2 1 2 2 1 1 3 4 3 5 2 3 11 18 15 16 3 7 6 4 5 8 12 11 13 14 15
18 17 16 16 15 14 13 12 10 9 7 3 1 2 3 2 3 6 4 2 1 4 3 5 4 8 4 6 4 4 4 3 1 2 1 4 3 7 5 3 4 1 5 1 2 1 2 5 6 3 3 3 4 4 3 4 5 6 3 4 2 4 1 2 1 3 2 3 3 4 4 5 15 17 8 18 8 5 4 4 5 8 10 12 12 12 11
15 16 16 15 15 14 13 12 10 8 7 4 1 2 3 1 3 4 4 3 1 4 4 1 2 6 2 5 6 6 5 6 3 2 4 4 3 2 3 1 5 2 2 2 3 4 1 4 4 4 3 3 5 4 8 6 4 8 8 3 5 8 3 3 3 2 3 5 6 4 5 5 10 10 6 7 7 4 3 4 7 8 9 10 9 11 11
16 16 16 15 15 14 13 11 9 7 5 4 2 1 2 2 1 2 4 4 4 4 3 2 2 5 8 9 9 9 9 11 10 6 5 5 1 3 3 2 3 1 1 1 1 1 0 1 2 3 4 3 2 4 6 4 8 8 9 6 4 9 5 4 4 4 4 3 4 4 4 1 5 6 7 6 7 7 6 6 6 8 10 9 7 10 12
15 16 16 15 15 14 12 10 8 6 4 3 2 2 2 1 1 0 2 2 2 3 3 4 4 7 7 9 12 12 12 11 10 8 8 5 5 2 4 3 4 2 1 1 2 2 4 1 3 2 3 3 7 5 4 3 3 6 8 7 4 5 8 7 3 5 10 3 3 1 6 4 3 7 8 9 10 11 11 8 7 8 8 10 8 10 11
16 15 16 15 14 13 11 9 7 5 4 2 3 2 1 2 2 0 0 1 1 4 3 0 2 4 2 6 3 3 6 6 10 13 7 6 4 4 2 3 1 0 1 5 4 1 3 1 4 0 3 5 5 4 6 4 4 5 5 5 4 6 10 5 5 12 7 2 4 9 9 8 3 4 6 8 11 10 10 12 10 7 10 11 13 12 12
15 15 15 14 13 11 10 9 7 5 3 2 1 2 1 1 2 2 2 0 0 0 1 5 4 9 6 6 6 8 8 8 6 8 7 9 10 5 4 1 4 1 3 3 2 1 1 2 4 2 4 3 5 5 3 3 3 5 4 6 6 6 11 3 8 11 5 5 6 11 12 8 5 4 4 7 9 11 13 11 12 11 5 8 12 12 11
16 15 14 13 12 11 10 8 6 4 3 3 2 2 2 1 0 2 1 1 1 0 1 3 6 5 3 7 5 4 6 6 8 10 11 12 13 13 8 5 4 1 0 0 1 2 1 1 1 1 4 3 5 2 3 4 6 5 2 6 5 5 5 5 10 6 8 10 4 17 20 7 10 7 7 6 8 8 10 13 14 13 12 12 9 11 9
16 14 13 12 11 11 9 7 4 3 2 1 1 2 2 2 2 3 3 1 1 1 1 3 5 8 5 8 7 6 7 3 6 7 9 11 11 9 5 2 1 3 5 5 3 2 2 2 1 2 1 1 4 3 3 4 3 4 3 6 8 7 9 9 8 7 4 3 8 14 10 11 9 7 3 7 8 9 9 10 13 14 12 13 11 10 11
15 14 12 11 11 10 7 5 3 3 2 1 2 1 2 2 3 4 2 0 0 2 2 3 5 8 8 5 4 6 7 8 4 6 4 5 5 3 2 1 0 2 4 4 5 4 2 4 4 2 1 2 4 3 3 5 3 2 5 7 9 8 8 8 7 6 9 11 13 8 11 16 17 17 16 8 6 8 9 10 10 13 13 10 10 9 11
15 13 12 11 10 8 6 4 2 1 2 3 1 1 3 5 5 4 4 2 2 1 1 3 4 3 3 5 7 4 7 8 7 6 7 7 7 5 3 2 2 1 1 2 1 1 1 2 3 3 3 3 3 3 5 4 4 5 8 12 13 10 10 10 11 14 14 13 12 11 12 14 18 17 16 15 8 7 9 8 8 10 11 9 6 6 7
14 13 11 9 8 6 5 3 2 3 4 1 1 1 2 3 1 2 3 3 3 2 1 2 3 0 3 2 2 7 6 8 7 9 8 5 4 3 2 3 2 2 2 2 1 2 2 2 3 4 5 5 4 3 3 4 2 5 9 14 12 11 11 9 10 11 14 15 14 14 15 18 16 18 18 15 9 6 8 9 9 10 8 4 7 5 4
14 12 10 7 7 5 4 4 4 5 4 2 2 1 2 2 1 1 4 3 3 3 1 2 3 4 5 3 1 4 3 3 3 4 4 4 3 3 2 3 3 1 2 0 1 1 0 1 2 2 1 3 2 2 2 3 3 5 13 14 13 13 12 12 11 11 12 13 13 12 13 14 13 15 19 16 13 11 12 12 13 13 11 7 6 4 6
13 10 8 6 6 5 4 5 6 5 4 4 2 1 2 2 3 1 4 3 4 1 2 1 2 2 1 2 1 0 1 1 1 1 2 1 2 2 4 3 1 2 1 1 1 1 1 2 1 2 2 4 3 1 2 2 5 9 13 12 11 11 11 11 11 12 13 14 16 14 9 10 9 12 13 10 9 8 10 14 15 12 13 10 8 8 7
11 9 7 6 4 2 3 5 6 5 3 4 3 2 2 1 3 3 4 3 1 1 1 1 1 1 0 2 3 3 1 2 3 1 2 2 1 1 1 1 1 1 3 1 2 0 1 1 1 1 1 2 1 2 2 4 6 8 9 10 10 11 11 11 11 11 13 13 10 11 14 15 16 15 16 15 12 11 8 8 7 7 6 5 5 7 7
11 8 6 5 4 3 3 4 3 2 3 1 1 2 3 3 1 4 1 1 1 1 1 1 1 2 3 4 2 2 1 1 1 1 1 1 0 1 0 0 1 0 3 2 1 1 3 1 2 2 1 2 2 1 2 3 4 5 6 6 9 10 9 9 9 12 14 12 13 10 12 15 16 13 12 11 10 8 6 6 5 5 7 6 7 10 8
11 7 5 3 3 3 1 2 0 0 1 2 2 3 2 3 3 3 3 1 0 0 0 1 1 2 4 5 2 3 0 2 1 0 1 1 0 0 0 0 2 2 1 1 1 1 1 1 1 2 4 1 1 1 1 5 6 5 5 7 9 9 10 10 12 15 14 13 12 12 13 14 15 10 8 9 9 9 10 9 7 6 8 7 7 7 5
9 4 3 3 4 4 1 1 1 0 1 2 3 3 6 3 2 1 2 1 1 0 0 1 1 1 3 0 2 1 1 1 1 0 1 0 1 0 0 1 1 1 1 0 0 0 0 2 1 3 2 1 4 2 5 5 5 5 7 9 10 11 12 15 16 17 17 15 15 15 16 16 15 15 9 8 8 8 9 11 11 10 11 10 9 8 6
2 6 8 7 3 2 0 3 1 2 2 1 4 8 6 2 1 0 0 0 1 0 1 1 1 2 4 1 1 4 2 2 1 1 1 2 2 1 1 2 0 1 1 2 0 0 2 0 2 1 3 4 4 6 8 9 8 8 10 9 9 9 11 12 15 16 17 18 19 18 17 17 16 13 10 7 7 6 7 10 10 10 11 12 10 8 8
6 5 3 1 2 2 1 1 1 2 9 11 7 2 1 2 0 1 1 0 1 1 1 1 1 2 1 2 1 1 1 3 1 0 2 0 2 2 0 0 1 1 2 1 1 2 0 1 1 1 2 5 6 8 9 7 7 6 7 8 9 9 10 10 13 15 16 17 17 17 17 15 15 14 14 10 7 7 9 9 8 8 8 9 9 7 6
3 1 1 1 2 1 1 1 1 6 5 1 1 1 1 1 1 1 1 1 1 1 0 1 3 1 2 0 4 3 1 0 3 1 1 1 1 4 2 2 1 1 1 2 1 1 2 2 1 1 3 7 9 10 10 7 6 5 6 6 7 8 8 9 10 14 15 15 14 15 15 15 15 15 12 12 7 7 7 8 8 8 8 9 8 6 6
1 0 1 1 0 1 1 1 2 1 0 1 2 2 1 0 1 1 0 1 2 1 1 2 3 3 5 2 2 4 2 0 1 1 0 3 0 1 1 0 1 1 1 1 2 2 2 1 2 2 4 7 8 9 9 9 7 7 7 7 9 9 9 9 9 9 10 11 12 15 17 17 16 12 12 11 12 6 7 7 8 8 7 8 8 7 6
0 0 1 1 1 1 1 0 2 1 1 0 0 0 0 1 1 1 1 1 1 1 1 1 1 2 1 1 3 2 2 1 0 0 1 1 1 1 1 0 0 1 1 1 2 2 1 1 2 4 7 9 8 9 9 10 9 8 8 8 9 9 10 10 10 10 11 11 11 13 15 17 16 15 14 15 12 8 3 4 6 7 7 7 8 8 8
1 1 1 2 3 2 1 2 2 1 0 0 1 1 1 2 0 1 1 1 2 1 3 1 2 2 2 6 4 2 1 1 1 0 1 1 1 1 1 0 1 2 0 2 1 1 2 2 4 4 6 10 9 9 9 10 10 9 10 9 10 11 12 11 11 12 12 13 12 13 15 18 18 16 14 13 11 10 7 4 2 2 6 6 5 4 2
3 4 2 1 1 1 1 1 1 2 1 1 2 2 2 1 1 0 3 1 1 0 3 1 1 1 0 1 1 0 1 0 0 0 1 1 1 1 0 1 1 2 1 1 1 1 3 3 4 5 7 8 9 9 9 9 9 9 8 8 9 10 12 12 12 12 14 15 16 16 16 19 19 18 17 17 16 17 14 10 6 5 5 5 5 4 4
3 1 1 0 1 0 0 1 1 1 2 0 2 1 1 2 6 3 2 3 1 3 2 1 3 0 2 1 3 1 1 0 1 1 1 0 1 1 1 1 1 1 0 2 2 3 2 1 4 5 7 7 7 9 10 10 9 9 8 8 10 11 11 11 12 13 16 16 17 17 17 18 20 20 20 19 19 17 14 14 12 7 7 8 8 7 6
1 1 2 0 0 0 1 2 1 2 1 2 0 0 0 1 4 1 2 3 2 6 5 2 2 2 2 1 1 0 1 0 1 1 1 0 1 1 1 1 1 1 2 2 2 0 0 2 5 5 7 8 9 9 9 9 9 7 7 6 9 10 10 11 12 11 12 14 15 16 16 17 17 18 20 20 19 19 17 15 14 11 10 10 9 9 7
0 0 0 3 3 2 1 0 1 2 1 0 0 2 2 5 4 4 6 2 3 6 7 5 0 2 0 1 1 1 0 2 1 1 0 1 2 1 0 0 3 2 1 1 2 2 2 4 5 6 7 8 8 9 9 8 8 6 6 6 6 8 9 9 9 9 9 11 12 13 14 14 15 16 16 17 18 19 18 17 16 14 13 13 11 10 9
1 1 2 1 1 2 1 0 1 1 1 1 3 5 5 3 5 6 3 1 3 5 6 4 3 2 1 0 0 2 1 0 1 1 1 2 1 1 1 3 1 1 2 3 2 2 3 5 5 6 7 8 8 9 8 8 7 7 6 4 5 6 7 7 8 8 8 8 10 12 12 13 14 13 14 16 17 17 18 18 18 17 16 14 13 12 12
0 1 1 0 2 0 2 1 1 1 1 2 4 4 4 1 3 7 6 2 4 2 3 3 2 3 2 2 3 1 1 1 2 2 0 0 1 2 1 1 1 0 0 1 4 3 3 3 5 7 8 7 7 7 7 7 7 7 6 5 4 4 5 6 7 7 6 7 7 8 10 12 12 12 13 13 14 15 16 17 17 16 16 15 14 14 14
2 1 0 1 1 1 1 2 2 1 4 5 3 3 4 5 3 6 6 3 4 6 3 0 0 2 1 1 2 2 3 2 3 1 2 3 2 1 1 2 3 1 0 0 3 3 3 5 5 5 6 7 6 6 6 6 6 6 6 5 4 4 4 4 5 6 5 4 4 5 7 8 9 10 11 12 13 13 13 14 15 15 16 16 15 14 15
0 1 2 1 4 2 0 1 2 1 4 5 3 2 1 1 3 5 1 3 4 3 3 1 2 3 1 1 1 2 1 1 1 1 3 1 0 1 2 1 2 2 2 1 2 3 4 6 4 5 5 6 6 6 6 7 7 7 6 5 4 4 4 3 4 5 6 5 6 6 4 5 6 8 10 11 9 9 11 13 13 14 15 15 16 16 16
1 1 1 2 2 4 2 1 1 2 4 4 2 3 1 2 1 4 1 1 3 4 4 1 0 2 2 3 1 2 0 0 3 1 1 0 0 1 1 2 2 2 3 3 4 5 5 5 4 5 4 5 5 6 6 6 5 6 6 6 4 4 4 5 4 4 4 4 4 7 6 5 5 6 6 7 8 9 10 12 12 11 12 12 13 14 15
1 1 1 2 0 1 2 1 1 4 4 3 3 4 2 1 2 4 1 2 3 5 2 1 1 1 2 1 1 1 0 2 1 1 2 1 0 1 1 2 4 3 3 3 5 5 4 4 4 4 3 4 4 4 5 5 5 6 7 6 4 5 5 5 5 5 4 4 3 3 3 3 3 4 4 6 7 8 9 9 9 10 9 9 10 11 12
Wind_Direction
336 336 335 334 333 331 330 333 335 339 344 351 352 335 353 23 272 288 301 319 338 65 71 48 32 5 357 321 280 290 351 28 12 11 0 6 359 341 49 143 59 112 47 342 335 354 314 93 140 4 329 298 322 341 342 353 341 328 291 311 271 318 297 301 287 292 263 259 259 262 255 254 283 266 227 186 203 197 211 204 176 183 198 225 267 263 267
333 332 331 330 329 326 328 331 334 334 360 1 335 353 335 292 288 316 319 334 340 72 43 355 351 345 328 351 300 320 345 10 20 26 18 33 332 333 331 47 104 252 9 29 327 337 314 55 66 286 217 286 337 329 341 349 332 330 324 347 331 347 294 55 315 336 315 290 279 258 315 127 12 328 267 210 210 206 209 95 155 194 204 199 176 241 258
330 328 329 329 327 328 328 329 330 330 347 12 346 344 313 292 253 213 302 359 26 63 52 21 302 2 345 329 345 350 351 11 36 6 45 24 359 323 346 104 314 59 19 329 299 315 148 264 206 243 299 269 339 322 331 328 311 290 293 294 302 277 290 28 338 292 221 207 209 206 349 336 305 257 296 266 213 200 157 190 182 208 232 175 197 240 255
328 328 327 327 326 327 328 326 325 325 338 7 347 334 328 7 350 314 329 28 26 81 60 74 20 341 1 351 331 328 343 339 34 11 56 35 343 281 264 353 15 38 354 358 330 314 148 165 247 177 226 262 318 256 304 311 296 298 296 303 342 224 271 219 212 208 248 290 306 273 303 317 296 297 311 300 293 217 190 118 159 205 196 187 222 219 259
326 327 326 327 327 326 325 323 320 322 334 8 346 310 156 294 87 335 337 331 84 38 240 26 39 357 326 322 315 343 9 352 330 12 306 2 336 316 10 49 30 327 351 300 304 253 289 275 305 255 266 228 250 252 275 293 294 341 331 344 326 324 299 253 232 240 252 265 274 288 294 277 271 270 278 283 279 261 199 186 211 148 118 223 245 202 223
326 326 326 327 328 326 321 319 317 320 333 2 354 349 273 43 286 103 202 342 330 349 8 359 339 308 323 265 291 347 9 12 3 321 30 340 338 4 324 33 3 331 300 303 305 305 279 281 266 262 233 294 234 282 264 279 302 5 339 323 295 246 247 290 270 263 276 276 276 274 271 249 258 260 265 273 275 271 223 206 181 146 199 216 230 193 215
323 325 323 325 324 321 316 314 314 322 328 15 354 345 337 191 242 168 303 295 27 263 290 315 313 317 319 280 347 17 14 358 8 304 310 347 334 9 329 320 319 311 308 292 246 280 329 276 237 231 248 229 275 260 310 285 5 2 330 318 289 288 243 260 288 299 289 274 255 255 245 261 255 255 254 256 258 256 243 212 161 181 205 200 199 193 219
323 322 323 321 321 316 311 308 310 318 329 360 302 222 264 328 37 329 248 202 271 272 299 292 329 327 333 356 349 11 347 341 343 326 324 330 302 317 324 313 309 307 301 267 248 238 220 252 270 204 266 279 196 211 209 253 190 254 304 293 300 11 262 323 327 315 293 282 272 265 283 291 292 284 306 289 264 236 234 204 179 177 241 266 219 205 235
324 325 323 324 320 317 309 306 308 308 352 313 7 309 198 270 186 277 305 304 240 245 289 315 328 327 317 38 313 337 324 339 343 289 223 243 275 317 308 303 302 298 290 272 260 267 263 253 248 257 255 271 190 163 224 184 240 264 243 251 289 295 271 344 356 340 294 302 337 325 330 301 259 295 349 346 337 248 199 163 317 163 188 217 110 219 253
323 323 323 322 321 318 309 309 308 296 281 263 201 257 93 312 226 115 161 267 312 322 256 273 324 290 247 319 331 332 324 281 331 321 266 238 235 258 291 299 297 286 290 275 260 266 273 272 275 270 266 260 254 214 220 171 196 186 201 237 262 231 290 346 330 316 259 285 326 317 308 312 9 358 359 327 356 92 86 60 38 24 245 160 188 235 223
325 325 320 321 317 319 317 314 303 297 271 269 219 235 233 242 305 310 188 248 225 201 141 238 189 263 301 320 312 312 300 297 175 341 288 302 288 283 283 287 278 273 268 270 283 282 275 273 273 269 259 255 253 242 226 198 186 188 196 199 239 244 263 261 14 268 281 310 310 302 3 71 249 196 30 351 18 31 65 38 22 8 34 217 225 256 281
325 325 319 321 317 317 317 311 300 287 241 236 228 252 231 187 232 200 239 261 274 160 215 249 236 281 292 296 302 299 306 313 291 189 252 280 285 298 301 287 299 303 268 288 293 286 287 279 262 259 252 252 249 240 217 205 198 200 202 204 225 247 278 277 207 258 289 305 310 140 125 208 174 128 47 359 344 32 72 63 37 21 15 9 354 335 25
322 322 321 319 317 316 313 309 300 286 256 230 233 255 226 185 207 196 210 227 259 204 276 271 239 254 272 286 291 289 293 280 284 297 276 279 292 305 282 320 304 291 306 300 303 311 316 286 295 285 281 269 243 225 225 214 215 208 199 208 218 234 232 270 250 229 304 315 327 166 186 267 346 107 13 1 18 27 340 25 20 20 15 1 346 341 358
324 322 320 319 318 316 312 312 306 293 272 247 243 235 240 228 221 192 198 201 259 203 221 270 255 259 261 275 296 299 310 304 300 273 290 277 297 288 297 304 293 297 301 298 294 322 320 13 327 345 318 324 294 237 215 221 225 218 214 209 209 228 246 263 289 205 198 295 295 251 325 323 341 6 358 355 342 329 352 17 10 8 6 3 349 350 359
322 320 320 317 315 313 313 312 310 298 287 268 243 246 240 221 229 214 202 199 259 246 163 275 220 261 295 293 300 307 309 296 333 306 275 277 260 269 292 290 298 306 309 333 332 12 278 332 332 319 285 265 188 200 160 216 205 218 220 208 207 209 208 203 203 281 101 4 325 335 52 216 323 318 300 301 257 285 283 271 350 3 2 360 356 5 352
323 323 321 317 315 315 315 315 309 290 275 271 237 244 244 224 223 214 185 187 176 284 223 224 248 273 290 297 304 297 288 309 297 288 310 291 253 301 298 299 304 313 321 58 30 2 336 339 303 302 274 304 331 314 209 218 186 186 201 200 203 214 217 240 253 277 343 333 259 258 211 259 23 326 311 315 315 276 302 204 47 1 352 355 352 6 8
324 321 318 317 319 320 319 320 319 315 300 273 238 225 248 184 205 207 199 197 176 231 36 117 146 219 303 293 281 280 211 235 283 330 320 318 309 306 302 317 309 343 352 55 1 29 324 297 248 250 273 282 270 290 330 332 166 128 169 181 196 212 215 199 222 249 223 242 287 279 242 261 326 317 321 316 312 325 224 92 40 347 335 353 357 9 11
324 321 319 322 324 325 323 324 324 318 307 305 219 234 244 188 200 180 190 183 208 267 227 235 232 249 248 233 261 263 275 44 309 271 247 268 306 313 322 337 335 317 349 23 5 21 334 285 324 311 301 339 313 303 18 330 50 95 142 166 172 213 223 162 211 221 230 226 248 304 18 291 317 324 319 311 304 276 83 84 54 328 323 348 3 13 10
323 322 324 327 326 324 325 325 328 329 327 341 201 239 254 216 188 193 187 211 177 245 230 321 204 230 242 244 252 260 249 276 290 295 302 323 255 276 302 253 67 332 8 357 3 350 325 289 227 260 287 293 331 19 333 5 18 6 65 108 166 234 213 202 77 254 232 209 175 200 182 237 325 331 322 325 4 50 63 56 352 328 333 339 6 17 13
324 327 327 327 327 326 327 329 330 330 328 332 158 261 266 231 187 190 192 226 186 266 287 264 233 248 236 262 271 290 318 306 174 189 222 274 277 341 357 17 315 312 312 346 9 329 331 328 327 323 328 330 1 327 357 17 350 21 347 339 52 348 316 43 322 288 324 348 11 37 358 339 356 327 338 9 52 47 13 319 355 343 349 348 5 10 4
325 327 328 326 328 327 330 331 333 328 323 319 192 276 299 241 182 198 201 212 311 302 292 261 255 255 247 242 237 237 232 241 180 204 222 231 271 10 347 320 279 346 296 25 358 323 331 307 329 333 334 337 327 355 359 326 306 354 353 23 63 350 50 25 344 340 334 19 33 38 322 338 345 8 34 37 45 345 10 23 4 356 355 359 360 358 0
329 329 328 328 327 328 330 333 332 332 318 309 158 186 246 258 174 178 203 201 224 227 256 247 213 255 252 250 247 239 236 245 235 218 253 278 248 208 236 236 264 204 240 109 14 317 298 276 310 333 329 330 305 29 331 354 26 332 359 2 77 359 12 359 310 336 21 310 35 349 333 254 8 360 35 45 40 8 18 48 40 9 353 338 355 348 344
329 328 328 329 328 329 334 337 342 342 325 314 135 185 241 7 332 117 160 234 219 260 279 281 296 283 281 255 241 235 235 231 247 241 222 225 291 257 216 234 272 210 244 155 214 218 259 258 262 270 297 12 360 334 3 49 336 358 9 3 45 11 9 353 353 347 306 236 157 178 31 347 59 28 24 33 19 13 3 15 37 28 357 342 337 337 337
329 329 328 329 331 333 337 343 339 344 328 311 154 141 227 238 243 96 114 248 310 311 295 314 21 309 284 308 311 219 213 228 218 228 208 178 207 285 293 219 191 163 259 237 196 286 281 224 258 296 348 9 347 17 353 357 30 346 347 10 357 21 9 27 29 332 341 206 14 28 359 336 70 50 30 32 37 8 1 352 4 17 14 348 331 334 335
328 330 330 331 331 330 331 333 333 330 315 294 236 197 183 293 248 184 134 220 34 167 296 311 257 238 252 256 270 269 241 218 193 198 194 194 207 214 239 236 184 194 269 283 131 44 13 334 331 7 360 20 5 341 326 348 338 13 5 12 348 9 359 63 3 327 289 314 341 349 339 297 157 102 32 34 43 15 352 349 344 326 360 359 326 321 330
330 331 330 331 331 330 331 330 330 336 311 292 168 130 163 230 229 140 167 288 301 194 335 309 286 293 295 311 301 266 268 227 191 178 193 201 208 218 242 341 334 357 278 48 91 31 1 14 345 341 4 316 34 335 331 6 290 307 59 45 352 328 356 20 334 297 287 272 327 357 336 8 145 132 98 62 47 34 348 345 335 329 326 330 326 320 323
331 331 331 332 331 330 332 334 329 317 304 255 143 151 172 255 201 170 156 185 101 348 29 268 277 293 345 322 281 303 321 320 190 184 197 206 216 223 237 302 321 332 16 351 7 77 64 51 53 336 353 287 341 287 335 327 348 345 16 27 356 354 14 349 334 325 316 15 349 354 336 310 287 252 120 4 358 8 349 336 325 322 328 325 324 318 331
330 331 331 329 332 331 332 328 333 335 292 258 193 209 197 226 228 201 225 142 164 184 231 256 293 295 304 250 291 334 354 8 75 136 157 181 182 128 117 195 220 46 15 23 353 9 359 5 331 262 291 356 339 340 349 278 297 26 26 23 5 357 348 342 330 317 300 312 312 295 280 276 266 279 294 300 319 318 315 313 311 308 312 306 322 323 334
329 329 329 329 329 330 322 316 291 297 180 137 117 294 262 233 231 208 201 165 115 110 214 263 275 316 1 325 319 3 41 35 46 67 88 94 106 122 143 127 87 94 85 98 110 274 325 330 318 334 9 15 301 332 339 11 15 38 12 354 351 349 337 320 312 303 289 291 296 294 283 277 288 290 287 289 276 272 273 268 270 286 291 296 317 321 320
325 326 325 323 324 323 310 292 187 138 135 122 32 310 8 317 303 188 192 172 150 117 75 5 1 266 319 297 334 14 43 48 41 48 54 66 80 95 80 103 70 63 88 100 310 22 9 352 352 333 338 330 350 338 353 356 19 38 359 350 342 341 334 320 303 303 298 300 294 286 274 271 273 279 282 277 266 225 243 234 226 248 257 236 269 276 267
320 320 319 318 318 321 306 257 201 173 128 81 70 42 35 17 296 248 168 158 144 109 148 139 248 299 323 258 171 19 20 63 70 63 43 27 35 23 13 16 28 22 52 351 97 182 160 54 312 298 274 329 11 34 344 334 354 353 355 343 346 340 335 316 305 286 284 285 282 277 268 270 271 275 271 264 258 230 229 238 233 221 212 227 233 253 268
313 311 310 308 306 306 294 249 223 163 124 119 147 162 183 201 231 229 147 130 104 67 85 1 331 349 308 309 312 34 99 92 92 56 21 358 20 11 43 35 93 335 38 103 323 350 355 288 273 294 351 349 14 68 357 342 4 359 334 341 343 335 325 310 310 311 313 314 315 310 288 279 272 259 273 276 259 244 221 228 222 210 201 184 193 218 228
306 306 303 301 297 298 276 253 230 181 182 203 232 319 273 30 99 107 125 97 55 188 149 93 150 245 317 292 324 331 85 34 16 44 16 346 23 7 29 8 13 44 342 63 353 104 298 302 274 333 61 23 54 63 35 19 358 331 336 333 332 333 325 317 313 315 319 322 323 316 310 306 299 285 272 268 265 261 251 232 199 203 224 188 184 202 216
300 297 294 276 262 231 230 246 258 104 48 60 301 243 211 243 222 133 93 67 167 240 90 115 28 5 260 311 57 291 27 94 298 51 37 313 115 69 176 303 266 71 323 89 274 16 317 307 355 303 336 61 63 176 61 356 347 339 333 322 327 327 330 327 325 334 331 323 323 310 307 307 305 293 280 269 264 261 251 234 236 242 243 225 204 212 187
294 281 266 260 206 186 223 154 8 233 214 251 242 261 171 170 159 183 164 170 47 317 27 350 118 52 348 354 48 275 113 85 356 293 148 247 53 155 258 65 324 75 283 135 29 145 285 357 276 26 343 279 139 97 65 335 335 335 327 333 336 328 331 347 352 342 335 333 330 332 326 323 325 308 266 266 259 259 262 262 249 245 261 253 246 235 198
299 254 213 163 116 125 117 188 210 159 329 223 237 174 148 159 117 108 146 130 139 164 79 254 85 173 144 201 285 274 13 90 217 4 217 197 349 257 149 130 31 250 206 104 198 299 101 275 74 351 268 82 29 14 340 318 318 333 346 343 340 345 350 349 342 340 337 338 345 347 346 345 337 328 291 250 246 249 247 255 256 252 252 255 243 243 233
61 119 123 110 99 48 355 233 218 177 218 208 134 120 108 74 359 16 29 346 329 175 153 143 21 232 172 230 249 276 34 340 334 18 333 56 223 283 51 45 164 220 64 355 359 353 256 98 114 288 356 20 355 341 340 335 344 347 352 344 343 341 344 345 349 345 346 348 352 353 348 342 337 334 318 261 240 234 242 247 245 234 232 232 234 225 224
107 92 95 64 55 45 337 295 253 193 123 113 111 75 357 23 49 321 359 24 280 124 340 77 237 256 344 84 321 256 319 267 75 136 317 222 34 314 335 103 239 39 13 302 273 174 198 53 67 53 337 351 355 355 347 337 339 346 339 341 342 346 344 345 349 350 346 349 359 354 349 344 342 337 334 311 246 233 229 239 243 243 243 242 237 225 214
74 78 52 37 100 211 191 277 75 99 74 24 46 63 329 6 53 356 261 243 48 324 285 111 248 174 119 357 269 273 173 294 322 3 35 277 95 312 24 53 315 73 322 8 313 137 3 341 348 32 17 343 352 347 342 337 335 340 343 338 339 345 347 350 357 1 359 356 345 343 343 342 337 334 334 334 301 230 233 231 242 241 242 246 248 235 220
52 47 153 75 238 254 319 241 142 43 12 16 342 92 328 286 90 285 246 359 331 234 121 305 216 173 174 164 114 318 285 9 318 295 214 306 82 148 265 104 274 80 336 64 269 42 106 353 306 350 356 352 344 333 338 335 337 341 348 343 346 347 351 354 355 358 355 349 351 355 355 351 348 342 338 335 326 285 228 231 233 235 235 238 238 236 231
142 99 46 105 174 145 224 296 340 58 27 343 355 358 78 336 238 200 48 15 232 251 178 180 4 2 260 136 125 204 288 76 90 119 125 175 254 76 41 82 286 73 327 313 286 64 64 63 357 14 346 341 331 328 331 337 341 340 345 344 349 350 350 350 353 357 359 358 1 4 3 360 356 353 347 347 342 327 290 242 228 230 234 235 230 225 223
174 147 166 108 102 89 64 22 37 8 295 227 87 289 224 228 330 5 129 42 290 288 303 170 297 228 244 179 198 166 293 183 163 182 84 25 290 104 229 246 17 98 347 249 231 30 57 25 341 352 337 332 326 330 335 336 333 337 339 348 352 351 350 351 353 358 2 3 3 7 8 7 6 3 358 356 346 343 353 9 347 258 236 245 247 246 187
102 118 109 80 74 64 128 31 289 110 88 354 35 2 348 31 304 312 290 281 298 111 259 203 224 197 228 92 26 152 181 302 99 319 75 233 303 46 85 359 43 16 260 298 51 11 25 348 357 337 331 324 324 329 332 330 326 331 335 349 354 352 349 350 352 356 2 5 6 9 9 11 9 6 5 8 5 7 8 2 16 47 48 66 57 65 87
108 116 101 70 72 323 177 353 218 346 353 64 95 326 336 1 313 2 358 287 285 297 250 336 285 103 279 243 154 270 26 330 60 77 301 257 78 353 46 40 298 237 182 19 32 32 348 355 355 316 310 315 326 332 332 331 331 332 341 351 357 354 350 348 355 2 6 6 8 7 10 12 9 9 10 11 11 8 7 12 5 24 61 68 72 66 67
105 5 34 51 9 260 56 319 334 102 17 289 143 208 182 270 278 205 255 251 140 280 300 231 214 155 226 257 74 138 129 175 321 87 263 113 17 350 76 286 280 30 53 351 329 351 17 353 320 321 329 328 322 321 328 330 334 336 327 341 354 351 351 354 358 2 7 9 7 6 12 10 12 12 11 12 13 16 16 10 5 17 38 50 61 63 61
137 189 83 60 342 318 106 215 353 13 303 137 233 225 211 243 205 252 249 197 284 307 325 313 240 165 265 263 129 221 356 95 49 264 208 72 97 344 251 54 60 49 357 341 331 301 332 328 315 314 315 315 312 316 324 329 334 346 359 353 339 346 347 351 358 5 8 10 10 11 11 13 14 14 12 11 17 17 18 18 18 19 33 42 42 55 60
44 360 88 116 98 279 90 76 262 216 196 233 229 207 212 244 221 222 244 265 271 276 280 256 208 181 132 189 97 356 15 82 69 320 59 42 69 255 20 82 17 356 16 335 333 341 317 312 313 308 313 315 318 324 324 331 342 354 351 339 347 346 346 352 356 7 12 11 15 15 14 14 15 14 14 18 18 17 17 18 19 24 33 35 33 36 46
25 253 95 23 248 216 50 252 213 318 288 206 250 242 252 252 24 340 317 288 256 339 346 3 10 354 17 317 84 122 320 14 53 321 23 230 356 45 13 43 81 84 86 334 315 304 293 290 296 307 313 313 312 321 329 337 342 349 355 344 329 331 342 350 354 355 10 18 15 20 20 18 16 17 18 17 17 20 21 20 19 22 27 28 33 38 42
131 118 150 200 204 157 207 247 88 197 275 300 294 318 359 17 331 282 284 307 346 318 287 117 183 89 324 290 67 36 10 335 74 287 6 22 76 5 347 8 7 353 75 185 270 290 273 279 290 301 306 315 326 335 335 332 343 350 352 343 325 314 328 348 349 345 354 17 19 18 26 29 25 21 20 19 20 18 19 24 24 27 27 27 27 33 40
61 326 29 47 14 330 16 52 71 320 305 323 2 317 307 347 314 288 266 349 314 331 349 11 31 94 256 75 12 8 27 335 118 9 55 18 17 24 59 359 253 195 263 255 245 259 272 278 294 308 312 324 325 335 335 330 344 348 344 346 345 342 344 343 341 345 351 5 26 23 7 20 30 27 25 24 15 12 22 29 29 27 28 28 28 28 35
16 120 226 193 147 229 159 287 263 257 297 281 258 261 226 276 235 279 278 344 4 34 40 52 294 56 13 20 45 38 271 96 52 44 145 209 33 93 153 191 242 221 228 229 228 239 252 272 283 286 307 316 320 331 334 327 334 345 341 352 0 3 4 3 351 339 345 354 21 35 14 15 35 44 38 30 24 22 28 31 31 31 34 34 32 30 30
48 39 321 300 275 170 167 154 142 190 209 220 205 244 151 268 253 253 270 81 59 64 337 285 66 33 58 41 238 199 338 44 66 37 32 311 120 131 223 202 238 238 222 259 271 257 244 256 262 270 285 306 328 330 331 327 350 2 0 346 17 31 15 9 4 4 348 348 7 30 5 22 36 54 58 51 39 34 35 34 26 26 28 36 40 38 36